Marshfield, MA

3:39 PM EDT on April 26, 2017 (GMT -0400)
Marshfield

Weather History for KGHG - December, 2014

Change the Weather History Date:

Sunday, December 7, 2014

  Actual Average (KPYM) Record (KPYM)
Temperature  
Mean Temperature 36 °F -  
Max Temperature 42 °F 47 °F 73 °F (1998)
Min Temperature 30 °F 25 °F 6 °F (2002)
Degree Days  
Heating Degree Days 29    
Moisture  
Dew Point 26 °F    
Average Humidity 65    
Maximum Humidity 93    
Minimum Humidity 41    
Precipitation  
Precipitation 0.15 in - - ()
Sea Level Pressure  
Sea Level Pressure 30.47 in    
Wind  
Wind Speed 13 mph (NNE)    
Max Wind Speed 17 mph    
Max Gust Speed 33 mph    
Visibility 9 miles    
Events Rain    
Averages and records for this station are not official NWS values.
T = Trace of Precipitation, MM = Missing Value Source: NWS Daily Summary

Daily Weather History Graph

Daily Weather History Graph

Search for Another Location

Airport or City:

Trip Planner

Search our weather history database for the weather conditions in past years. The results will help you decide how hot, cold, wet, or windy it might be!

Date:

Astronomy

Dec. 07, 2014 Rise Set
Actual Time 6:57 AM EST 4:10 PM EST
Civil Twilight 6:25 AM EST 4:42 PM EST
Nautical Twilight 5:50 AM EST 5:17 PM EST
Astronomical Twilight 5:16 AM EST 5:51 PM EST
Moon 5:37 PM EST (12/7) 7:37 AM EST (12/7)
Length of Visible Light 10h 16m
Length of Day
9h 13m
Full, 98% of the Moon is Illuminated
Dec 7
Full
Dec 14
Last Quarter
Dec 21
New
Dec 28
First Quarter
Jan 4
Full

Hourly Weather History & Observations

Time (EST) Temp. Windchill Dew Point Humidity Pressure Visibility Wind Dir Wind Speed Gust Speed Precip Events Conditions
12:15 AM 42.8 °F 37.5 °F 41.0 °F 93% 30.21 in 4.0 mi North 9.2 mph 20.7 mph 0.01 in Rain Light Rain
12:35 AM 42.8 °F 36.2 °F 39.2 °F 87% 30.22 in 9.0 mi North 12.7 mph 24.2 mph 0.02 in Rain Light Rain
12:55 AM 41.0 °F 33.9 °F 39.2 °F 93% 30.23 in 3.0 mi North 12.7 mph 26.5 mph 0.03 in Rain Light Rain
1:15 AM 41.0 °F 34.3 °F 39.2 °F 93% 30.24 in 3.0 mi North 11.5 mph 24.2 mph 0.03 in Rain Rain
1:35 AM 41.0 °F 33.9 °F 39.2 °F 93% 30.25 in 3.0 mi North 12.7 mph 24.2 mph 0.06 in Rain Rain
1:55 AM - - - N/A% 30.26 in 4.0 mi North 10.4 mph 19.6 mph 0.08 in Rain Light Rain
2:15 AM 41.0 °F 33.5 °F 39.2 °F 93% 30.27 in 5.0 mi North 13.8 mph 25.3 mph 0.01 in Rain Light Rain
2:35 AM 41.0 °F 33.1 °F 39.2 °F 93% 30.27 in 7.0 mi North 15.0 mph 26.5 mph 0.02 in   Overcast
2:55 AM 41.0 °F 34.7 °F 37.4 °F 87% 30.27 in 6.0 mi NNE 10.4 mph 25.3 mph 0.04 in Rain Light Rain
3:15 AM 41.0 °F 33.9 °F 37.4 °F 87% 30.27 in 10.0 mi NNE 12.7 mph 25.3 mph N/A   Overcast
3:35 AM 42.8 °F 37.0 °F 37.4 °F 81% 30.27 in 10.0 mi NNE 10.4 mph 27.6 mph N/A   Overcast
3:55 AM 42.8 °F 35.8 °F 35.6 °F 76% 30.28 in 10.0 mi North 13.8 mph 23.0 mph N/A   Overcast
4:15 AM 42.8 °F 36.6 °F 35.6 °F 76% 30.29 in 10.0 mi North 11.5 mph 23.0 mph N/A   Mostly Cloudy
4:35 AM 42.8 °F 36.6 °F 33.8 °F 70% 30.29 in 10.0 mi North 11.5 mph 29.9 mph N/A   Mostly Cloudy
4:55 AM 42.8 °F 34.8 °F 32.0 °F 66% 30.31 in 10.0 mi North 17.3 mph 27.6 mph N/A   Scattered Clouds
5:15 AM 42.8 °F 35.1 °F 32.0 °F 66% 30.32 in 10.0 mi North 16.1 mph 28.8 mph N/A   Partly Cloudy
5:35 AM 41.0 °F 35.2 °F 33.8 °F 76% 30.33 in 10.0 mi North 9.2 mph 27.6 mph N/A   Partly Cloudy
5:55 AM 41.0 °F 33.5 °F 32.0 °F 70% 30.34 in 10.0 mi North 13.8 mph 27.6 mph N/A   Partly Cloudy
6:15 AM 39.2 °F 31.6 °F 32.0 °F 75% 30.35 in 10.0 mi North 12.7 mph 24.2 mph N/A   Scattered Clouds
6:35 AM 39.2 °F 32.5 °F 32.0 °F 75% 30.36 in 10.0 mi NNE 10.4 mph 26.5 mph N/A   Mostly Cloudy
6:55 AM 39.2 °F 31.6 °F 32.0 °F 75% 30.37 in 10.0 mi North 12.7 mph 29.9 mph N/A   Overcast
7:15 AM 39.2 °F 31.6 °F 32.0 °F 75% 30.38 in 10.0 mi North 12.7 mph 26.5 mph N/A   Overcast
7:35 AM 39.2 °F 30.8 °F 32.0 °F 75% 30.39 in 10.0 mi North 15.0 mph 29.9 mph N/A   Overcast
7:55 AM 39.2 °F 31.6 °F 32.0 °F 75% 30.41 in 10.0 mi North 12.7 mph 27.6 mph N/A   Mostly Cloudy
8:15 AM 39.2 °F 30.2 °F 32.0 °F 75% 30.42 in 10.0 mi North 17.3 mph 26.5 mph N/A   Mostly Cloudy
8:35 AM 39.2 °F 32.5 °F 28.4 °F 65% 30.42 in 10.0 mi North 10.4 mph 25.3 mph N/A   Scattered Clouds
8:55 AM 39.2 °F 32.5 °F 30.2 °F 70% 30.44 in 10.0 mi North 10.4 mph 23.0 mph N/A   Partly Cloudy
9:15 AM 39.2 °F 30.5 °F 28.4 °F 65% 30.46 in 10.0 mi NNE 16.1 mph 23.0 mph N/A   Scattered Clouds
9:35 AM 37.4 °F 28.9 °F 28.4 °F 70% 30.47 in 10.0 mi NNE 13.8 mph 27.6 mph N/A   Mostly Cloudy
9:55 AM 37.4 °F 28.9 °F 28.4 °F 70% 30.47 in 10.0 mi North 13.8 mph 25.3 mph N/A   Mostly Cloudy
10:15 AM 37.4 °F 29.3 °F 26.6 °F 65% 30.47 in 10.0 mi North 12.7 mph 26.5 mph N/A   Mostly Cloudy
10:35 AM 37.4 °F 30.3 °F 28.4 °F 70% 30.47 in 10.0 mi North 10.4 mph 25.3 mph N/A   Partly Cloudy
10:55 AM 37.4 °F 29.3 °F 28.4 °F 70% 30.47 in 10.0 mi North 12.7 mph 26.5 mph N/A   Partly Cloudy
11:15 AM 37.4 °F 29.3 °F 28.4 °F 70% 30.47 in 10.0 mi North 12.7 mph 27.6 mph N/A   Clear
11:35 AM 37.4 °F 30.3 °F 28.4 °F 70% 30.48 in 10.0 mi North 10.4 mph 25.3 mph N/A   Clear
11:55 AM 37.4 °F 29.3 °F 28.4 °F 70% 30.48 in 10.0 mi North 12.7 mph 24.2 mph N/A   Partly Cloudy
12:15 PM 37.4 °F 30.8 °F 26.6 °F 65% 30.48 in 10.0 mi North 9.2 mph 24.2 mph N/A   Clear
12:35 PM 37.4 °F 29.3 °F 24.8 °F 60% 30.49 in 10.0 mi NNE 12.7 mph 25.3 mph N/A   Clear
12:55 PM 37.4 °F 29.3 °F 24.8 °F 60% 30.49 in 10.0 mi NNE 12.7 mph 20.7 mph N/A   Clear
1:15 PM 37.4 °F 29.8 °F 23.0 °F 56% 30.50 in 10.0 mi NNE 11.5 mph 26.5 mph N/A   Clear
1:35 PM 37.4 °F 29.3 °F 21.2 °F 52% 30.50 in 10.0 mi North 12.7 mph 23.0 mph N/A   Clear
1:55 PM 37.4 °F 29.8 °F 19.4 °F 48% 30.50 in 10.0 mi North 11.5 mph 26.5 mph N/A   Clear
2:15 PM 35.6 °F 27.5 °F 21.2 °F 56% 30.51 in 10.0 mi NNE 11.5 mph 28.8 mph N/A   Clear
2:35 PM 35.6 °F 26.6 °F 19.4 °F 52% 30.52 in 10.0 mi North 13.8 mph 27.6 mph N/A   Clear
2:55 PM 35.6 °F 27.1 °F 17.6 °F 48% 30.53 in 10.0 mi NNE 12.7 mph 28.8 mph N/A   Clear
3:15 PM 35.6 °F 27.1 °F 17.6 °F 48% 30.54 in 10.0 mi NNE 12.7 mph 29.9 mph N/A   Clear
3:35 PM 35.6 °F 26.6 °F 17.6 °F 48% 30.54 in 10.0 mi North 13.8 mph 25.3 mph N/A   Clear
3:55 PM 35.6 °F 26.6 °F 19.4 °F 52% 30.54 in 10.0 mi NNE 13.8 mph 25.3 mph N/A   Clear
4:15 PM 35.6 °F 27.1 °F 15.8 °F 44% 30.55 in 10.0 mi North 12.7 mph 24.2 mph N/A   Clear
4:35 PM 35.6 °F 27.5 °F 14.0 °F 41% 30.56 in 10.0 mi North 11.5 mph 24.2 mph N/A   Clear
4:55 PM 35.6 °F 27.5 °F 14.0 °F 41% 30.56 in 10.0 mi North 11.5 mph 25.3 mph N/A   Clear
5:15 PM 35.6 °F 27.5 °F 15.8 °F 44% 30.57 in 10.0 mi North 11.5 mph 26.5 mph N/A   Clear
5:35 PM 35.6 °F 25.9 °F 14.0 °F 41% 30.58 in 10.0 mi North 16.1 mph 29.9 mph N/A   Clear
5:55 PM 33.8 °F 23.5 °F 17.6 °F 52% 30.59 in 10.0 mi NNE 16.1 mph 26.5 mph N/A   Clear
6:15 PM 33.8 °F 23.5 °F 15.8 °F 48% 30.60 in 10.0 mi North 16.1 mph 29.9 mph N/A   Clear
6:35 PM 33.8 °F 25.8 °F 17.6 °F 52% 30.61 in 10.0 mi North 10.4 mph 27.6 mph N/A   Clear
6:55 PM 33.8 °F 23.9 °F 17.6 °F 52% 30.62 in 10.0 mi North 15.0 mph 32.2 mph N/A   Clear
7:15 PM 32.0 °F 22.1 °F 19.4 °F 60% 30.62 in 10.0 mi North 13.8 mph 29.9 mph N/A   Clear
7:35 PM 32.0 °F 21.6 °F 19.4 °F 60% 30.63 in 10.0 mi North 15.0 mph 31.1 mph N/A   Clear
7:55 PM 32.0 °F 21.2 °F 19.4 °F 60% 30.63 in 10.0 mi North 16.1 mph 29.9 mph N/A   Clear
8:15 PM 32.0 °F 22.1 °F 14.0 °F 48% 30.64 in 10.0 mi NNE 13.8 mph 29.9 mph N/A   Clear
8:35 PM 32.0 °F 21.2 °F 17.6 °F 55% 30.64 in 10.0 mi NE 16.1 mph 27.6 mph N/A   Clear
8:55 PM 32.0 °F 21.6 °F 17.6 °F 55% 30.65 in 10.0 mi NNE 15.0 mph 29.9 mph N/A   Clear
9:15 PM 32.0 °F 22.1 °F 19.4 °F 60% 30.65 in 10.0 mi NNE 13.8 mph 26.5 mph N/A   Scattered Clouds
9:35 PM 32.0 °F 22.1 °F 19.4 °F 60% 30.64 in 10.0 mi NNE 13.8 mph 27.6 mph N/A   Scattered Clouds
9:55 PM 32.0 °F 21.6 °F 19.4 °F 60% 30.65 in 10.0 mi North 15.0 mph 33.4 mph N/A   Scattered Clouds
10:15 PM 32.0 °F 22.1 °F 19.4 °F 60% 30.66 in 10.0 mi NNE 13.8 mph 27.6 mph N/A   Mostly Cloudy
10:35 PM 32.0 °F 20.8 °F 21.2 °F 64% 30.67 in 10.0 mi NNE 17.3 mph 29.9 mph N/A   Mostly Cloudy
10:55 PM 32.0 °F 21.2 °F 19.4 °F 60% 30.66 in 10.0 mi NE 16.1 mph 25.3 mph N/A   Mostly Cloudy
11:15 PM 32.0 °F 22.5 °F 19.4 °F 60% 30.66 in 10.0 mi NNE 12.7 mph 21.9 mph N/A   Mostly Cloudy
11:35 PM 30.2 °F 19.8 °F 19.4 °F 64% 30.66 in 10.0 mi NNE 13.8 mph 24.2 mph N/A   Mostly Cloudy
11:55 PM 30.2 °F 20.2 °F 21.2 °F 69% 30.67 in 10.0 mi NNE 12.7 mph 31.1 mph N/A   Mostly Cloudy